EUTELSAT HOTBIRD 13E

Last updated on Fri Apr 18 2025 00:02:39 GMT+0000 (Coordinated Universal Time)

1 28946U 06007B 25107.38797987 -.00000115 00000+0 00000+0 0 9991 2 28946 0.9944 91.0817 0005480 315.5642 282.8089 1.00272814 70050
UTC large
Height (km)
Speed (km/s)
/
Latitude / Longitude
Inclination (degrees)
Orbital Period (minutes)
Azimuth
Elevation
Range (km)
Doppler Factor

Next 0 passes for location: London (51.5072 / 0.1276)

Sorry there are no passes over London.